This is the latest recevied weather packets stored in our database for station/object AB4KY. If no packets are shown the sender has not sent any weather packets the latest 10 day(s).
| Time | Temp. | Humidity | Pressure | Rain* | Wind** | Luminosity | Snow |
|---|---|---|---|---|---|---|---|
| 1777836997 | 17.78° C | 39% | 1014.8 hPa | 0 mm | - | 606 W/m² | - |
| 1777836693 | 18.33° C | 35% | 1014.8 hPa | 0 mm | - | 546 W/m² | - |
| 1777836388 | 17.78° C | 39% | 1014.7 hPa | 0 mm | - | 590 W/m² | - |
| 1777836084 | 17.78° C | 38% | 1014.7 hPa | 0 mm | - | 498 W/m² | - |
| 1777835781 | 17.78° C | 38% | 1015.1 hPa | 0 mm | - | 603 W/m² | - |
| 1777835478 | 17.78° C | 41% | 1015 hPa | 0 mm | - | 599 W/m² | - |
| 1777835175 | 18.33° C | 39% | 1015.1 hPa | 0 mm | - | 563 W/m² | - |
| 1777834872 | 17.78° C | 40% | 1015.3 hPa | 0 mm | - | 593 W/m² | - |
| 1777834569 | 17.78° C | 41% | 1015.5 hPa | 0 mm | - | 615 W/m² | - |
| 1777834269 | 17.22° C | 46% | 1015.5 hPa | 0 mm | - | 623 W/m² | - |
| 1777833964 | 16.67° C | 40% | 1015.6 hPa | 0 mm | - | 603 W/m² | - |
| 1777833661 | 17.22° C | 41% | 1015.6 hPa | 0 mm | - | 458 W/m² | - |
| 1777833358 | 17.22° C | 39% | 1016 hPa | 0 mm | - | 483 W/m² | - |
| 1777833055 | 16.67° C | 39% | 1015.6 hPa | 0 mm | - | 454 W/m² | - |
| 1777832753 | 16.67° C | 43% | 1016 hPa | 0 mm | - | 601 W/m² | - |
| 1777832451 | 17.78° C | 43% | 1016 hPa | 0 mm | - | 680 W/m² | - |
| 1777832148 | 17.22° C | 39% | 1016 hPa | 0 mm | - | 526 W/m² | - |
| 1777831844 | 16.67° C | 38% | 1016 hPa | 0 mm | - | 604 W/m² | - |
| 1777831541 | 17.22° C | 44% | 1016.2 hPa | 0 mm | - | 626 W/m² | - |
| 1777831239 | 16.67° C | 39% | 1016.2 hPa | 0 mm | - | 522 W/m² | - |
| 1777830936 | 16.67° C | 43% | 1016.4 hPa | 0 mm | - | 554 W/m² | - |
| 1777830633 | 16.67° C | 42% | 1016.2 hPa | 0 mm | - | 697 W/m² | - |
| 1777830330 | 16.11° C | 37% | 1016.4 hPa | 0 mm | - | 574 W/m² | - |
| 1777830026 | 16.11° C | 41% | 1016.3 hPa | 0 mm | - | 659 W/m² | - |
| 1777829722 | 16.11° C | 39% | 1016.6 hPa | 0 mm | - | 694 W/m² | - |
* Rain latest hour (hover to see other rain measurements)
** Current wind speed in m/s (hover to see current wind gust speed)